Date String (YYYY-MM-DD hh:mm:ss) UTC,Instrument flags,Ambient pressure (hPa),Sample flow (lpm),Bypass flow (lpm),Sample temperature (°C),Ambient temperature (°C),ASC tube jacket temperature (°C),LED temperature (°C),Box temperature (°C),Sample RH (%),Span deviation,Mass concentration (μg/m³),Mass concentration (μg/m³),Mass concentration (μg/m³)
DateTimeUTC,F1_M11,P_M11,Q1_M11,Q2_M11,T1_M11,T2_M11,T3_M11,T4_M11,T5_M11,U1_M11,ZSPAN_M11,X0_M11,X2_M11,X1_M11
2023-05-07 20:00:00,,0827.6,5.00,0.00,30.3,28.6,00.0,38.8,31.8,13.2,0000.0,0006.32,0002.74,0001.89
2023-05-07 20:01:00,,0827.6,4.99,0.00,30.3,28.7,00.0,38.8,31.8,13.1,0000.0,0006.71,0002.69,0001.87
2023-05-07 20:02:00,,0827.5,5.01,0.00,30.3,28.7,00.0,38.8,31.8,13.0,0000.0,0006.99,0002.78,0001.88
2023-05-07 20:03:00,,0827.5,5.02,0.00,30.4,28.8,00.0,38.8,31.9,12.9,0000.0,0007.51,0002.83,0001.91
2023-05-07 20:04:00,,0827.6,4.99,0.00,30.4,28.9,00.0,38.8,31.9,12.9,0000.0,0007.55,0002.86,0001.93
2023-05-07 20:05:00,,0827.6,5.00,0.00,30.4,29.0,00.0,38.8,32.0,13.1,0000.0,0007.51,0002.86,0001.95
2023-05-07 20:06:00,,0827.5,4.99,0.00,30.4,29.1,00.0,38.8,32.0,13.0,0000.0,0007.58,0002.94,0001.97
2023-05-07 20:07:00,,0827.5,4.99,0.00,30.4,29.1,00.0,38.8,32.0,12.9,0000.0,0007.57,0002.97,0001.98
2023-05-07 20:08:00,,0827.5,5.00,0.00,30.5,29.2,00.0,38.8,32.0,13.0,0000.0,0007.98,0002.96,0001.98
2023-05-07 20:09:00,,0827.6,5.01,0.00,30.5,29.2,00.0,38.8,32.0,13.3,0000.0,0008.04,0002.97,0001.99
2023-05-07 20:10:00,,0827.6,5.01,0.00,30.5,29.2,00.0,38.8,32.1,12.9,0000.0,0008.04,0003.03,0002.00
2023-05-07 20:11:00,,0827.5,4.99,0.00,30.5,29.2,00.0,38.8,32.1,13.1,0000.0,0008.38,0003.06,0002.00
2023-05-07 20:12:00,,0827.6,4.99,0.00,30.5,29.2,00.0,38.9,32.1,13.0,0000.0,0008.68,0003.07,0002.00
2023-05-07 20:13:00,,0827.5,5.00,0.00,30.5,29.3,00.0,38.9,32.1,12.8,0000.0,0008.48,0003.05,0001.99
2023-05-07 20:14:00,,0827.6,5.00,0.00,30.6,29.2,00.0,38.9,32.1,12.5,0000.0,0008.33,0002.96,0001.97
2023-05-07 20:15:00,,0827.6,4.99,0.00,30.6,29.3,00.0,38.9,32.1,12.6,0000.0,0008.01,0002.91,0001.95
2023-05-07 20:16:00,,0827.7,5.01,0.00,30.6,29.3,00.0,38.9,32.2,12.7,0000.0,0008.00,0002.84,0001.92
2023-05-07 20:17:00,,0827.7,5.01,0.00,30.6,29.3,00.0,38.9,32.2,12.8,0000.0,0008.36,0002.76,0001.89
2023-05-07 20:18:00,,0827.7,5.01,0.00,30.6,29.3,00.0,38.9,32.2,12.7,0000.0,0008.83,0002.72,0001.86
2023-05-07 20:19:00,,0827.7,5.00,0.00,30.7,29.3,00.0,38.9,32.2,12.4,0000.0,0008.50,0002.67,0001.85
2023-05-07 20:20:00,,0827.7,5.00,0.00,30.7,29.3,00.0,39.0,32.2,12.7,0000.0,0007.98,0002.68,0001.83
2023-05-07 20:21:00,,0827.7,4.99,0.00,30.7,29.4,00.0,39.0,32.2,12.6,0000.0,0008.00,0002.65,0001.79
2023-05-07 20:22:00,,0827.7,5.00,0.00,30.7,29.4,00.0,39.0,32.2,12.5,0000.0,0007.80,0002.57,0001.74
2023-05-07 20:23:00,,0827.7,4.99,0.00,30.7,29.4,00.0,39.0,32.3,12.4,0000.0,0006.52,0002.47,0001.70
2023-05-07 20:24:00,,0827.7,4.99,0.00,30.7,29.4,00.0,39.0,32.3,12.7,0000.0,0006.47,0002.42,0001.70
2023-05-07 20:25:00,,0827.7,5.01,0.00,30.8,29.4,00.0,39.0,32.3,12.5,0000.0,0006.28,0002.46,0001.71
2023-05-07 20:26:00,,0827.7,5.00,0.00,30.8,29.5,00.0,39.1,32.3,12.5,0000.0,0006.35,0002.49,0001.70
2023-05-07 20:27:00,,0827.7,5.00,0.00,30.8,29.5,00.0,39.1,32.3,12.6,0000.0,0006.30,0002.53,0001.70
2023-05-07 20:28:00,,0827.7,4.99,0.00,30.8,29.6,00.0,39.1,32.4,12.6,0000.0,0005.56,0002.59,0001.75
2023-05-07 20:29:00,,0827.7,4.99,0.00,30.8,29.3,00.0,39.1,32.4,12.9,0000.0,0004.84,0002.67,0001.83
2023-05-07 20:30:00,,0827.7,4.99,0.00,30.8,27.4,00.0,39.0,32.1,12.5,0000.0,0005.65,0002.88,0001.93
2023-05-07 20:31:00,,0827.7,4.99,0.00,30.7,25.8,00.0,38.9,31.8,12.9,0000.0,0005.82,0002.96,0002.01
2023-05-07 20:32:00,,0827.5,5.00,0.00,30.6,25.7,00.0,38.8,31.7,12.7,0000.0,0005.87,0003.01,0002.09
2023-05-07 20:33:00,,0827.5,5.01,0.00,30.4,26.0,00.0,38.8,31.6,13.1,0000.0,0006.12,0003.11,0002.16
2023-05-07 20:34:00,,0827.5,5.00,0.00,30.4,26.5,00.0,38.8,31.6,13.1,0000.0,0006.39,0003.19,0002.24
2023-05-07 20:35:00,,0827.5,5.01,0.00,30.3,26.9,00.0,38.8,31.6,13.0,0000.0,0006.39,0003.22,0002.30
2023-05-07 20:36:00,,0827.5,4.99,0.00,30.3,27.3,00.0,38.8,31.7,12.9,0000.0,0007.00,0003.25,0002.35
2023-05-07 20:37:00,,0827.6,4.99,0.00,30.3,27.6,00.0,38.8,31.7,13.0,0000.0,0007.71,0003.28,0002.42
2023-05-07 20:38:00,,0827.8,4.98,0.00,30.3,27.9,00.0,38.8,31.7,12.9,0000.0,0008.24,0003.30,0002.49
2023-05-07 20:39:00,,0827.5,5.01,0.00,30.3,28.1,00.0,38.8,31.8,12.7,0000.0,0009.70,0003.37,0002.54
2023-05-07 20:40:00,,0827.4,5.00,0.00,30.3,28.3,00.0,38.8,31.8,12.8,0000.0,0009.89,0003.38,0002.55
2023-05-07 20:41:00,,0827.4,5.00,0.00,30.3,28.5,00.0,38.7,31.8,12.9,0000.0,0009.38,0003.32,0002.51
2023-05-07 20:42:00,,0827.4,4.99,0.00,30.3,28.6,00.0,38.7,31.9,12.7,0000.0,0009.37,0003.36,0002.49
2023-05-07 20:43:00,,0827.4,5.02,0.00,30.3,28.7,00.0,38.7,31.9,12.8,0000.0,0009.50,0003.37,0002.49
2023-05-07 20:44:00,,0827.4,5.00,0.00,30.4,28.8,00.0,38.7,31.9,13.0,0000.0,0009.62,0003.35,0002.49
2023-05-07 20:45:00,,0827.4,5.00,0.00,30.4,28.9,00.0,38.8,32.0,13.2,0000.0,0009.64,0003.35,0002.49
2023-05-07 20:46:00,,0827.4,5.00,0.00,30.4,29.0,00.0,38.8,32.0,12.7,0000.0,0009.93,0003.40,0002.47
2023-05-07 20:47:00,,0827.4,4.99,0.00,30.4,29.0,00.0,38.8,32.0,12.6,0000.0,0009.67,0003.42,0002.44
2023-05-07 20:48:00,,0827.4,5.00,0.00,30.4,29.1,00.0,38.8,32.0,12.5,0000.0,0009.12,0003.39,0002.43
2023-05-07 20:49:00,,0827.3,5.02,0.00,30.5,29.1,00.0,38.8,32.0,12.7,0000.0,0008.64,0003.39,0002.42
2023-05-07 20:50:00,,0827.4,5.00,0.00,30.5,29.2,00.0,38.8,32.0,12.8,0000.0,0007.25,0003.40,0002.43
2023-05-07 20:51:00,,0827.4,5.00,0.00,30.5,29.2,00.0,38.8,32.0,12.9,0000.0,0006.99,0003.35,0002.40
2023-05-07 20:52:00,,0827.4,4.99,0.00,30.5,29.2,00.0,38.8,32.1,12.8,0000.0,0007.44,0003.41,0002.42
2023-05-07 20:53:00,,0827.4,5.00,0.00,30.5,29.3,00.0,38.8,32.1,12.7,0000.0,0007.34,0003.36,0002.42
2023-05-07 20:54:00,,0827.4,5.00,0.00,30.6,29.3,00.0,38.9,32.1,12.6,0000.0,0007.64,0003.36,0002.43
2023-05-07 20:55:00,,0827.4,5.00,0.00,30.6,29.3,00.0,38.9,32.2,12.9,0000.0,0007.49,0003.37,0002.42
2023-05-07 20:56:00,,0827.4,5.01,0.00,30.6,29.4,00.0,38.9,32.2,12.9,0000.0,0007.51,0003.39,0002.42
2023-05-07 20:57:00,,0827.4,5.00,0.00,30.6,29.4,00.0,38.9,32.2,12.7,0000.0,0007.39,0003.34,0002.43
2023-05-07 20:58:00,,0827.4,4.99,0.00,30.6,29.4,00.0,38.9,32.2,12.6,0000.0,0007.42,0003.33,0002.46
2023-05-07 20:59:00,,0827.4,5.00,0.00,30.7,29.4,00.0,38.9,32.2,12.7,0000.0,0007.52,0003.37,0002.48
